Hourly Data Report for March 23, 2017

All times are specified in Local Standard Time (LST). Add 1 hour to adjust for Daylight Saving Time where and when it is observed.

GRANBY
QUEBEC

45°22'22.000" N
72°46'26.000" W
86.00 m
7022802
MGB

Related Data

No related data is available for this station

Download Data

Hourly Data (March 2017)
Hourly Data Report for March 23, 2017
Temp Definition
°C
Dew Point Temp Definition
°C
Rel Hum Definition
%
Wind Dir Definition
10's deg

Wind Spd Definition
km/h
Visibility Definition
km
Stn Press Definition
kPa
Hmdx Definition


Wind Chill Definition


Weather Definition


TIME
00:00 -15.2 -20.1 66 20 2   101.92   -17 LegendNANA
01:00 -16.9 -21.1 69 0 1   101.94   -18 LegendNANA
02:00 -17.9 -21.2 76 22 2   101.94   -19 LegendNANA
03:00 -18.1 -21.1 77 22 2   101.95   -20 LegendNANA
04:00 -18.8 -20.5 86 20 4   102.01   -22 LegendNANA
05:00 -18.0 -20.3 82 21 2   102.08   -20 LegendNANA
06:00 -18.7 -20.4 87 21 3   102.15   -21 LegendNANA
07:00 -15.1 -17.7 80 20 2   102.21   -17 LegendNANA
08:00 -11.7 -17.1 64 15 5   102.26   -15 LegendNANA
09:00 -9.2 -16.4 56 16 6   102.26   -13 LegendNANA
10:00 -7.4 -18.5 40 28 8   102.24   -11 LegendNANA
11:00 -6.4 -17.3 42 24 6   102.22   -9 LegendNANA
12:00 -5.4 -17.0 40 29 9   102.19   -9 LegendNANA
13:00 -4.5 -16.8 37 24 12   102.16   -9 LegendNANA
14:00 -3.6 -15.8 38 25 12   102.12   -8 LegendNANA
15:00 -2.5 -14.8 38 23 12   102.08   -7 LegendNANA
16:00 -2.0 -15.9 34 25 12   102.06   -6 LegendNANA
17:00 -2.3 -14.5 39 22 6   102.02   -5 LegendNANA
18:00 -3.2 -14.0 43 21 4   102.05   -5 LegendNANA
19:00 -4.3 -12.6 52 22 2   102.07   -5 LegendNANA
20:00 -4.3 -13.0 51 20 3   102.08   -6 LegendNANA
21:00 -3.7 -13.4 47 20 4   102.05   -5 LegendNANA
22:00 -3.9 -12.1 53 20 2   102.04   -5 LegendNANA
23:00 -3.4 -13.1 47 19 3   101.95   -5 LegendNANA

Notes on Data Quality.

Legend

  • E = Estimated
  • M = Missing
  • NA = Not Available
  • ‡ = Partner data that is not subject to review by the National Climate Archives
Date modified: